Home   Weather   Dera Ghazi Khan   Past weeks
Flag for Pakistan

Past Weather in Dera Ghazi Khan, Pakistan — Yesterday and Last 2 Weeks

Now
75 °F

Clear.


Feels Like: 77 °F
Forecast: 93 / 67 °F
Wind: No wind

Location: Multan Airport

Current Time: Oct 19, 2019 at 10:27:05 pm

Latest Report: Oct 19, 2019 at 10:00 pm


Visibility: 2 mi

Pressure: 30.01 "Hg

Humidity: 61%

Dew Point: 61 °F

Location of Dera Ghazi KhanLocation

Past Weather in Dera Ghazi Khan — Graph

°F

Dera Ghazi Khan Temperature Yesterday

Maximum temperature yesterday: 84 °F (at 2:30 pm)
Minimum temperature yesterday: 70 °F (at 5:00 am)
Average temperature yesterday: 77 °F

High & Low Weather Summary for the Past Weeks

 TemperatureHumidityPressure
High97 °F (Oct 14, 2:30 pm)94% (Oct 5, 8:30 pm)30.09 "Hg (Oct 5, 8:30 pm)
Low66 °F (Oct 7, 4:00 am)28% (Oct 13, 1:30 pm)29.39 "Hg (Oct 7, 8:30 pm)
Average81 °F61%29.88 "Hg
* Reported Oct 4 9:00 pm — Oct 19 9:00 pm, Dera Ghazi Khan. Weather by CustomWeather, © 2019

Note: Actual official high and low records may vary slightly from our data, if they occured in-between our weather recording intervals... More about our weather records

Advertising

Dera Ghazi Khan Weather History for the Previous 24 Hours

Scroll right to see more
 ConditionsComfort  
Time TempWeatherWind HumidityBarometerVisibility
9:00 pm
Sat, Oct 19
77 °FClear.No wind61%30.01 "Hg2 mi
8:00 pm79 °FClear.No wind58%29.98 "Hg2 mi
7:30 pm79 °FHaze.No wind54%29.98 "Hg2 mi
6:00 pm82 °FHaze.No wind40%29.98 "Hg2 mi
5:30 pm86 °FHaze.No wind35%29.95 "Hg3 mi
5:00 pm88 °FHaze.No wind33%29.95 "Hg3 mi
4:30 pm86 °FHaze.No wind33%29.98 "Hg4 mi
4:00 pm86 °FHaze.No wind33%29.98 "Hg4 mi
3:30 pm86 °FHaze.No wind33%29.98 "Hg4 mi
3:00 pm84 °FHaze.No wind35%29.98 "Hg4 mi
2:30 pm84 °FClear.No wind35%30.04 "Hg4 mi
2:00 pm84 °FClear.No wind35%30.04 "Hg4 mi
1:30 pm84 °FClear.No wind35%30.04 "Hg4 mi
1:00 pm82 °FHaze.No wind42%30.04 "Hg4 mi
12:30 pm82 °FHaze.No wind42%30.07 "Hg4 mi
12:00 pm81 °FHaze.5 mph45%30.07 "Hg3 mi
11:30 am81 °FHaze.5 mph45%30.09 "Hg3 mi
11:00 am79 °FHaze.5 mph48%30.09 "Hg3 mi
10:00 am75 °FClear.5 mph57%30.09 "Hg2 mi
9:30 am75 °FClear.5 mph57%30.09 "Hg2 mi
9:00 am73 °FClear.5 mph61%30.09 "Hg2 mi
8:30 am72 °FClear.7 mph65%30.07 "Hg2 mi
8:00 am68 °FClear.5 mph78%30.07 "Hg2 mi
7:30 am66 °FClear.5 mph83%30.07 "Hg2 mi
7:00 am66 °FClear.5 mph83%30.04 "Hg2 mi
6:30 am66 °FClear.5 mph83%30.04 "Hg2 mi
6:00 am66 °FClear.5 mph83%30.04 "Hg2 mi
5:30 am66 °FClear.No wind83%30.01 "Hg2 mi
4:00 am68 °FClear.7 mph73%29.98 "Hg2 mi
3:00 am68 °FClear.5 mph73%30.01 "Hg2 mi
2:30 am70 °FClear.No wind69%30.01 "Hg2 mi
2:00 am70 °FPassing clouds.7 mph69%30.01 "Hg2 mi
1:30 am70 °FPassing clouds.7 mph69%30.01 "Hg2 mi
1:00 am72 °FPassing clouds.7 mph65%30.01 "Hg2 mi
12:30 am73 °FPassing clouds.7 mph65%30.01 "Hg2 mi
12:00 am73 °FPassing clouds.7 mph65%30.01 "Hg2 mi
11:30 pm
Fri, Oct 18
75 °FPassing clouds.7 mph57%30.01 "Hg2 mi
11:00 pm75 °FPassing clouds.12 mph57%30.01 "Hg2 mi
10:30 pm75 °FPassing clouds.12 mph57%30.01 "Hg2 mi
10:00 pm75 °FPassing clouds.9 mph57%30.01 "Hg2 mi
Weather by CustomWeather, © 2019

See weather overview